Orbital Elements at Epoch 2459200.5 (2020-Dec-17.0) TDB
Reference: JPL 13 (heliocentric ecliptic J2000)
Element | Value | Uncertainty (1-sigma) | Units |
e | .07250600612062397 | 6.3658e-08 | |
a | 2.39393608421642 | 1.5136e-08 | au |
q | 2.220361339841842 | 1.5249e-07 | au |
i | 22.77169077810817 | 6.5754e-06 | deg |
node | 344.1723374654608 | 1.2083e-05 | deg |
peri | 351.2356355146088 | 3.4279e-05 | deg |
M | 316.7469009963738 | 3.3842e-05 | deg |
tp | 2459363.048131596038 (2021-May-28.54813160) | 0.0001278 | TDB |
period | 1352.904848960482 3.70 | 1.2831e-05 3.513e-08 | d yr |
n | .266094101352811 | 2.5236e-09 | deg/d |
Q | 2.567510828590998 | 1.6233e-08 | au |
|
| | Orbit Determination Parameters
Additional Information
|